#timestamp,LO_Frequency,Hit,StdDev 
1514055615.0,286047021.8,N
1514055615.9,286047021.8,N
1514055635.8,286047016.3,N
1514055655.6,286047015.2,N
1514055675.4,286047012.2,N
1514055695.2,286047012.0,N
1514055715.1,286047006.5,N
1514055716.0,286047006.5,N
1514055735.8,286047006.4,N
1514055755.6,286047006.9,N
1514055775.5,286047004.9,N
1514055795.3,286047005.1,N
1514055815.1,286047004.2,N
1514055835.9,286047002.8,N
1514055855.7,286047000.7,N
1514055875.5,286046999.6,N
1514055895.4,286047000.0,N
1514055915.2,286047002.2,N
1514055935.0,286046999.8,N
1514055935.9,286046999.8,N
1514055955.8,286046999.0,N
1514055975.6,286047000.7,N
1514055995.4,286047001.0,N
1514056015.3,286047002.7,N
1514056035.1,286047004.0,N
1514056036.0,286047004.0,N
1514056055.8,286047003.5,N
1514056075.7,286047000.8,N
1514056095.5,286047002.8,N
1514056115.3,286047003.1,N
1514056135.1,286047004.5,N
1514056155.9,286047007.2,N
1514056175.7,286047005.1,N
1514056195.5,286047006.0,N
1514056215.4,286047000.9,N
1514056235.2,286047000.6,N
1514056255.0,286046995.0,N
1514056255.9,286046995.0,N
1514056275.8,286046996.5,N
1514056295.6,286047001.7,N
1514056315.4,286047008.1,N
1514056335.3,286047007.9,N
1514056355.1,286047007.0,N
1514056356.0,286047007.0,N
1514056375.8,286047003.4,N
1514056395.7,286047002.3,N
1514056415.5,286047004.4,N
1514056435.3,286047005.7,N
1514056455.1,286047005.7,N
1514056475.9,286047007.7,N
1514056495.7,286047010.5,N
1514056515.5,286047007.2,N
1514056535.4,286047010.0,N
1514056555.2,286047010.4,N
1514056575.0,286047010.7,N
1514056575.9,286047010.7,N
1514056595.8,286047006.9,N
1514056615.6,286047008.1,N
1514056635.4,286047011.6,N
1514056655.3,286047018.7,Y
1514056675.1,286047012.3,P
1514056695.8,286047009.4,N
1514056715.7,286047010.4,P
1514056735.5,286047008.5,Y
1514056755.3,286046996.6,P
1514056775.2,286046994.3,N
1514056795.9,286046988.9,N
1514056815.7,286046988.4,N
1514056835.6,286046986.1,N
1514056855.4,286046986.8,N
1514056875.2,286046988.4,N
1514056895.0,286046989.6,N
1514056896.0,286046989.6,N
1514056915.8,286046985.3,N
1514056935.6,286046989.0,N
1514056955.4,286046993.0,N
1514056975.3,286046995.7,N
1514056995.1,286046997.5,N
1514057015.8,286046994.7,N
1514057035.7,286046997.3,N
1514057055.5,286046998.3,N
1514057075.3,286046994.5,N
1514057095.2,286046993.0,N
1514057115.9,286046992.6,N
1514057135.7,286046990.3,N
1514057155.6,286046991.0,N
1514057175.4,286046991.4,N
1514057195.2,286046992.2,N
1514057215.0,286046989.1,N
1514057215.9,286046989.1,N
1514057235.8,286046991.9,N
1514057255.6,286046995.6,N
1514057275.4,286046993.6,N
1514057295.3,286046992.1,N
1514057315.1,286046990.6,N
1514057335.8,286046988.9,Y
1514057355.7,286047003.1,P
1514057375.5,286046998.5,N
1514057395.3,286046995.1,N
1514057415.2,286046997.6,N
1514057435.9,286046994.5,N
1514057455.7,286046994.9,N
1514057475.6,286046996.3,N
1514057495.4,286046993.4,N
1514057515.2,286046996.7,N
1514057535.1,286046999.6,N
1514057536.0,286046999.6,N
1514057555.8,286046997.1,N
1514057575.6,286046998.0,N
1514057595.5,286046993.7,N
1514057615.3,286046996.1,N
1514057635.1,286046995.1,N
1514057655.8,286046993.6,N
1514057675.7,286046992.0,N
1514057695.5,286046996.1,N
1514057715.3,286046991.8,Y
1514057735.2,286046994.4,P
1514057755.0,286046994.5,P
1514057755.9,286046994.5,P
1514057775.8,286046993.9,Y
1514057795.6,286046999.2,P
1514057815.4,286046997.9,N
1514057835.2,286047000.4,N
1514057855.1,286047002.5,N
1514057856.0,286047002.5,N
1514057875.8,286047002.8,N
1514057895.6,286046997.3,N
1514057915.5,286046999.3,N
1514057935.3,286046998.0,N
1514057955.1,286046994.8,N
1514057975.9,286046993.1,N
1514057995.7,286046989.1,Y
1514058015.5,286046993.1,P
1514058035.4,286046992.2,N
1514058055.2,286046996.0,N
1514058075.0,286046992.4,Y
1514058075.9,286046992.4,P
1514058095.8,286046995.2,P
1514058115.6,286046997.2,N
1514058135.4,286046999.2,N
1514058155.3,286047002.5,N
1514058175.1,286046999.9,N
1514058176.0,286046999.9,N
1514058195.8,286046998.4,N
1514058215.7,286046999.4,N
1514058235.5,286046999.1,N
1514058255.3,286046998.4,N
1514058275.1,286046999.9,N
1514058295.9,286046998.2,N
1514058315.7,286047001.6,N
1514058335.5,286046996.5,N
1514058355.4,286046994.5,N
1514058375.2,286046992.2,Y
1514058395.0,286046996.0,P
1514058395.9,286046996.0,P
1514058415.8,286046994.9,P
1514058435.6,286046997.1,N
1514058455.4,286046994.2,Y
1514058475.3,286046995.6,P
1514058495.1,286046993.4,P
1514058515.8,286046992.3,P
1514058535.7,286046992.5,Y
1514058555.5,286046999.4,P
1514058575.3,286046997.5,N
1514058595.2,286046998.6,N
1514058615.9,286047001.7,N
1514058635.7,286046999.7,N
1514058655.6,286047003.4,N
1514058675.4,286047007.0,N
1514058695.2,286047005.6,N
1514058715.1,286047007.1,N
1514058716.0,286047007.1,N
1514058735.8,286047009.1,N
1514058755.6,286047010.9,N
1514058775.5,286047013.9,N
1514058795.3,286047009.6,N
1514058815.1,286047007.2,N
1514058835.9,286047006.9,N
1514058855.7,286047004.6,N
1514058875.5,286047003.1,N
1514058895.3,286047005.1,N
1514058915.2,286047007.2,N
1514058935.0,286047006.3,N
1514058935.9,286047006.3,N
1514058955.7,286047007.4,N
1514058975.6,286047005.8,N
1514058995.4,286047001.7,N
1514059015.2,286047000.3,N
1514059035.1,286047001.1,N
1514059036.0,286047001.1,N
1514059055.8,286047000.5,N
1514059075.6,286047000.3,N
1514059095.5,286047001.1,N
1514059115.3,286047000.1,N
1514059135.1,286047000.9,N
1514059155.9,286046999.2,N
1514059175.7,286046998.5,N
1514059195.5,286046998.7,N
